GEC8160 EDDF-KJFK

Flight info

Callsign GEC8160
Flight time 7h 42m
Altitude 28000
Route OBOKA3D/07C OBOKA Z28 DIBIR DCT BUDIP DCT GISEB DCT RAVLO Y70 ABTOS/N0488F300 Y70 OTBED DCT ABLUC DCT OZRAT DCT WETFI DCT REVNU DCT RESNO/M083F310 DCT 55N020W 54N030W 52N040W 50N050W DCT ELSIR/N0486F320 N402C ALLEX DCT ENE PARCH4
Aircraft B77L/H-SDE1E2E3FGHIJ2J3J4J5M1RWXY/LB1D1

Departure

Time 2026-05-08 17:53
Airport Frankfurt Main Airport (EDDF)

Arrival

Time 2026-05-09 01:35
Airport John F. Kennedy International Airport (KJFK)
Time Latitude Longitude Altitude Speed Heading
2026-05-08 17:11 50.04005 8.54552 353 ft 0 kts 249°
2026-05-08 17:39 50.04005 8.54553 353 ft 1 kts 250°
2026-05-08 17:39 50.04013 8.54588 353 ft 4 kts 250°
2026-05-08 17:39 50.04023 8.54627 363 ft 4 kts 239°
2026-05-08 17:40 50.04038 8.54652 363 ft 4 kts 180°
2026-05-08 17:40 50.04039 8.54655 360 ft 4 kts 160°
2026-05-08 17:40 50.04027 8.54661 357 ft 1 kts 159°
2026-05-08 17:43 50.04023 8.54664 361 ft 2 kts 160°
2026-05-08 17:44 50.04001 8.54676 353 ft 4 kts 160°
2026-05-08 17:44 50.03974 8.54688 362 ft 4 kts 168°
2026-05-08 17:44 50.03947 8.54676 363 ft 4 kts 211°
2026-05-08 17:44 50.03930 8.54637 353 ft 5 kts 246°
2026-05-08 17:45 50.03913 8.54574 360 ft 8 kts 247°
2026-05-08 17:45 50.03890 8.54485 351 ft 10 kts 248°
2026-05-08 17:45 50.03857 8.54374 359 ft 12 kts 232°
2026-05-08 17:45 50.03783 8.54349 349 ft 8 kts 165°
2026-05-08 17:46 50.03771 8.54355 349 ft 0 kts 162°
2026-05-08 17:46 50.03766 8.54358 349 ft 1 kts 162°
2026-05-08 17:46 50.03755 8.54363 356 ft 2 kts 162°
2026-05-08 17:47 50.03740 8.54372 356 ft 4 kts 159°
2026-05-08 17:47 50.03696 8.54386 347 ft 7 kts 185°
2026-05-08 17:47 50.03662 8.54340 352 ft 4 kts 231°
2026-05-08 17:47 50.03661 8.54339 346 ft 0 kts 231°
2026-05-08 17:48 50.03659 8.54335 346 ft 3 kts 226°
2026-05-08 17:48 50.03645 8.54321 346 ft 2 kts 208°
2026-05-08 17:49 50.03613 8.54316 346 ft 9 kts 175°
2026-05-08 17:49 50.03525 8.54359 356 ft 15 kts 160°
2026-05-08 17:49 50.03426 8.54416 355 ft 16 kts 159°
2026-05-08 17:49 50.03317 8.54462 353 ft 16 kts 179°
2026-05-08 17:50 50.03229 8.54368 350 ft 16 kts 244°
2026-05-08 17:50 50.03189 8.54203 347 ft 16 kts 250°
2026-05-08 17:50 50.03149 8.54038 347 ft 16 kts 249°
2026-05-08 17:50 50.03109 8.53872 335 ft 16 kts 250°
2026-05-08 17:51 50.03071 8.53711 334 ft 13 kts 249°
2026-05-08 17:51 50.03094 8.53603 335 ft 12 kts 328°
2026-05-08 17:51 50.03169 8.53554 337 ft 12 kts 340°
2026-05-08 17:51 50.03244 8.53512 346 ft 11 kts 346°
2026-05-08 17:52 50.03294 8.53589 352 ft 15 kts 70°
2026-05-08 17:52 50.03378 8.53946 354 ft 64 kts 69°
2026-05-08 17:52 50.03977 8.56444 362 ft 175 kts 69°
2026-05-08 17:53 50.04431 8.58357 571 ft 193 kts 69°
2026-05-08 17:53 50.04875 8.60340 1056 ft 193 kts 69°
2026-05-08 17:53 50.05309 8.62321 1611 ft 192 kts 70°
2026-05-08 17:53 50.05757 8.64263 2097 ft 190 kts 70°
2026-05-08 17:54 50.06199 8.66279 2255 ft 206 kts 71°
2026-05-08 17:54 50.06682 8.68445 2448 ft 219 kts 69°
2026-05-08 17:54 50.07387 8.70621 2622 ft 232 kts 47°
2026-05-08 17:54 50.08726 8.72109 2938 ft 241 kts 26°
2026-05-08 17:55 50.10287 8.73203 3307 ft 251 kts 24°
2026-05-08 17:55 50.11919 8.74314 3757 ft 260 kts 24°
2026-05-08 17:55 50.13598 8.75440 4309 ft 263 kts 24°
2026-05-08 17:55 50.15260 8.76556 4929 ft 264 kts 24°
2026-05-08 17:56 50.16967 8.77682 5419 ft 269 kts 22°
2026-05-08 17:56 50.18722 8.78824 5859 ft 276 kts 23°
2026-05-08 17:56 50.20498 8.80031 6335 ft 283 kts 24°
2026-05-08 17:56 50.22322 8.81274 6786 ft 288 kts 23°
2026-05-08 17:57 50.24177 8.82456 7298 ft 289 kts 14°
2026-05-08 17:57 50.26183 8.82552 7564 ft 294 kts 342°
2026-05-08 17:57 50.27933 8.81017 8107 ft 290 kts 313°
2026-05-08 17:57 50.29061 8.78427 8620 ft 288 kts 292°
2026-05-08 17:58 50.29781 8.75482 9092 ft 292 kts 288°
2026-05-08 17:58 50.30422 8.72475 9758 ft 290 kts 287°
2026-05-08 17:58 50.31022 8.69455 10269 ft 294 kts 287°
2026-05-08 17:58 50.31670 8.66355 10442 ft 308 kts 287°
2026-05-08 17:59 50.32376 8.63089 10539 ft 325 kts 288°
2026-05-08 17:59 50.33140 8.59649 10566 ft 344 kts 288°
2026-05-08 17:59 50.33937 8.56017 10716 ft 359 kts 288°
2026-05-08 17:59 50.34769 8.52280 11066 ft 368 kts 288°
2026-05-08 18:00 50.35340 8.49705 11342 ft 373 kts 288°
2026-05-08 18:00 50.37010 8.42004 12760 ft 372 kts 288°
2026-05-08 18:00 50.37742 8.38187 13271 ft 371 kts 279°
2026-05-08 18:01 50.37713 8.34131 13624 ft 378 kts 257°
2026-05-08 18:01 50.36953 8.30196 14089 ft 380 kts 252°
2026-05-08 18:01 50.36133 8.26238 14582 ft 384 kts 252°
2026-05-08 18:01 50.35320 8.22243 15151 ft 386 kts 252°
2026-05-08 18:02 50.34507 8.18227 15693 ft 388 kts 252°
2026-05-08 18:02 50.33690 8.14178 16224 ft 391 kts 252°
2026-05-08 18:02 50.32868 8.10100 16755 ft 394 kts 252°
2026-05-08 18:02 50.32041 8.05997 17283 ft 397 kts 252°
2026-05-08 18:03 50.31208 8.01866 17808 ft 400 kts 252°
2026-05-08 18:03 50.30367 7.97708 18320 ft 402 kts 252°
2026-05-08 18:03 50.29642 7.93491 18681 ft 404 kts 262°
2026-05-08 18:03 50.29750 7.89072 18967 ft 412 kts 282°
2026-05-08 18:04 50.30722 7.84863 19435 ft 412 kts 294°
2026-05-08 18:04 50.31981 7.80819 19827 ft 416 kts 294°
2026-05-08 18:04 50.33216 7.76707 20253 ft 419 kts 294°
2026-05-08 18:04 50.34430 7.72546 20737 ft 421 kts 293°
2026-05-08 18:05 50.35802 7.68517 21059 ft 423 kts 306°
2026-05-08 18:05 50.37951 7.65310 21333 ft 433 kts 326°
2026-05-08 18:05 50.40647 7.63211 21769 ft 433 kts 336°
2026-05-08 18:05 50.43446 7.61398 22133 ft 437 kts 336°
2026-05-08 18:06 50.46261 7.59527 22550 ft 440 kts 335°
2026-05-08 18:06 50.49076 7.57617 23021 ft 442 kts 335°
2026-05-08 18:06 50.51903 7.55672 23463 ft 444 kts 335°
2026-05-08 18:06 50.54737 7.53712 23870 ft 447 kts 335°
2026-05-08 18:07 50.57531 7.51570 24189 ft 447 kts 328°
2026-05-08 18:07 50.60135 7.48987 24488 ft 450 kts 324°
2026-05-08 18:07 50.62744 7.46141 24864 ft 452 kts 323°
2026-05-08 18:07 50.65298 7.43348 25232 ft 454 kts 324°
2026-05-08 18:08 50.67926 7.40560 25613 ft 456 kts 325°
2026-05-08 18:08 50.70583 7.37817 25977 ft 458 kts 326°
2026-05-08 18:08 50.73261 7.35063 26321 ft 458 kts 324°
2026-05-08 18:08 50.75686 7.31806 26498 ft 461 kts 308°
2026-05-08 18:09 50.77535 7.27677 26801 ft 462 kts 302°
2026-05-08 18:09 50.79287 7.23412 27189 ft 463 kts 302°
2026-05-08 18:09 50.81081 7.19161 27544 ft 466 kts 303°
2026-05-08 18:09 50.82918 7.14934 27896 ft 468 kts 304°
2026-05-08 18:10 50.84793 7.10694 28055 ft 473 kts 304°
2026-05-08 18:10 50.86704 7.06399 28089 ft 481 kts 304°
2026-05-08 18:10 50.90575 6.97669 28106 ft 486 kts 304°
2026-05-08 18:11 50.94462 6.88907 28102 ft 485 kts 304°
2026-05-08 18:11 50.98339 6.80146 28101 ft 485 kts 304°
2026-05-08 18:12 51.02201 6.71375 28099 ft 485 kts 304°
2026-05-08 18:12 51.06050 6.62599 28099 ft 484 kts 304°
2026-05-08 18:13 51.09895 6.53807 28104 ft 484 kts 304°
2026-05-08 18:13 51.13722 6.44979 28104 ft 483 kts 304°
2026-05-08 18:14 51.17526 6.36155 28106 ft 483 kts 304°
2026-05-08 18:14 51.21322 6.27320 28100 ft 483 kts 304°
2026-05-08 18:15 51.25109 6.18479 28100 ft 482 kts 304°
2026-05-08 18:15 51.28853 6.09677 28097 ft 482 kts 304°
2026-05-08 18:16 51.32503 6.00706 28096 ft 481 kts 303°
2026-05-08 18:16 51.36147 5.91726 28096 ft 481 kts 303°
2026-05-08 18:17 51.40237 5.83284 28095 ft 480 kts 314°
2026-05-08 18:17 51.44907 5.75639 28102 ft 480 kts 315°
2026-05-08 18:18 51.49559 5.67962 28109 ft 479 kts 314°
2026-05-08 18:18 51.54175 5.60245 28104 ft 479 kts 314°
2026-05-08 18:19 51.58772 5.52505 28107 ft 478 kts 314°
2026-05-08 18:19 51.63359 5.44756 28105 ft 478 kts 314°
2026-05-08 18:20 51.67939 5.36998 28105 ft 478 kts 314°
2026-05-08 18:20 51.72515 5.29225 28106 ft 477 kts 314°
2026-05-08 18:21 51.77070 5.21461 28104 ft 476 kts 314°
2026-05-08 18:21 51.81615 5.13689 28152 ft 478 kts 314°
2026-05-08 18:22 51.83896 5.09777 28479 ft 479 kts 314°
2026-05-08 18:22 51.86175 5.05864 29009 ft 475 kts 314°
2026-05-08 18:22 51.88428 5.01991 29578 ft 472 kts 314°
2026-05-08 18:22 51.90670 4.98130 30142 ft 468 kts 314°
2026-05-08 18:23 51.92883 4.94287 30586 ft 465 kts 314°
2026-05-08 18:23 51.95077 4.90445 30984 ft 463 kts 314°
2026-05-08 18:23 51.97256 4.86616 31347 ft 461 kts 314°
2026-05-08 18:23 51.99418 4.82806 31879 ft 455 kts 315°
2026-05-08 18:24 52.01557 4.79031 32148 ft 457 kts 314°
2026-05-08 18:24 52.03718 4.75218 32122 ft 459 kts 314°
2026-05-08 18:24 52.08020 4.67609 32105 ft 454 kts 314°
2026-05-08 18:25 52.12272 4.60067 32105 ft 452 kts 314°
2026-05-08 18:25 52.16491 4.52565 32110 ft 451 kts 314°
2026-05-08 18:26 52.20726 4.45010 32120 ft 451 kts 314°
2026-05-08 18:26 52.24958 4.37437 32116 ft 452 kts 314°
2026-05-08 18:27 52.28484 4.31109 32117 ft 452 kts 314°
2026-05-08 18:27 52.33430 4.22206 32121 ft 453 kts 314°
2026-05-08 18:28 52.37629 4.14621 32126 ft 453 kts 314°
2026-05-08 18:28 52.41182 4.08184 32126 ft 454 kts 314°
2026-05-08 18:29 52.45412 4.00501 32128 ft 454 kts 314°
2026-05-08 18:29 52.49638 3.92803 32134 ft 453 kts 313°
2026-05-08 18:30 52.53842 3.85119 32137 ft 452 kts 313°
2026-05-08 18:30 52.58034 3.77432 32135 ft 451 kts 313°
2026-05-08 18:31 52.62211 3.69749 32135 ft 451 kts 313°
2026-05-08 18:31 52.66369 3.62078 32136 ft 450 kts 313°
2026-05-08 18:32 52.70486 3.54459 32142 ft 450 kts 313°
2026-05-08 18:32 52.74631 3.46763 32144 ft 449 kts 312°
2026-05-08 18:33 52.78554 3.39455 32142 ft 449 kts 312°
2026-05-08 18:33 52.82641 3.31818 32144 ft 449 kts 312°
2026-05-08 18:34 52.86729 3.24159 32145 ft 448 kts 312°
2026-05-08 18:34 52.90448 3.16084 32137 ft 449 kts 300°
2026-05-08 18:35 52.92859 3.06622 32146 ft 452 kts 287°
2026-05-08 18:35 52.94207 2.96415 32149 ft 454 kts 284°
2026-05-08 18:36 52.95493 2.86174 32161 ft 453 kts 284°
2026-05-08 18:36 52.96801 2.75950 32148 ft 453 kts 284°
2026-05-08 18:37 52.98120 2.65722 32165 ft 453 kts 284°
2026-05-08 18:37 52.99431 2.55504 32150 ft 453 kts 284°
2026-05-08 18:38 53.00730 2.45294 32151 ft 451 kts 283°
2026-05-08 18:38 53.02017 2.35095 32148 ft 450 kts 283°
2026-05-08 18:39 53.03285 2.24962 32149 ft 448 kts 283°
2026-05-08 18:39 53.04546 2.14827 32149 ft 448 kts 283°
2026-05-08 18:40 53.05799 2.04704 32150 ft 447 kts 283°
2026-05-08 18:40 53.07048 1.94576 32150 ft 447 kts 283°
2026-05-08 18:41 53.08285 1.84450 32149 ft 447 kts 282°
2026-05-08 18:41 53.09504 1.74383 32148 ft 447 kts 282°
2026-05-08 18:42 53.10729 1.64188 32148 ft 447 kts 282°
2026-05-08 18:42 53.11931 1.54106 32144 ft 447 kts 282°
2026-05-08 18:43 53.13132 1.43955 32145 ft 447 kts 282°
2026-05-08 18:43 53.14325 1.33791 32143 ft 447 kts 282°
2026-05-08 18:44 53.15509 1.23626 32142 ft 447 kts 281°
2026-05-08 18:44 53.16685 1.13450 32141 ft 447 kts 281°
2026-05-08 18:45 53.17853 1.03262 32139 ft 447 kts 281°
2026-05-08 18:45 53.19012 0.93069 32138 ft 447 kts 281°
2026-05-08 18:46 53.19967 0.84597 32134 ft 447 kts 281°
2026-05-08 18:46 53.21109 0.74398 32134 ft 447 kts 281°
2026-05-08 18:47 53.22241 0.64205 32131 ft 447 kts 281°
2026-05-08 18:47 53.23366 0.54008 32126 ft 447 kts 281°
2026-05-08 18:48 53.24484 0.43816 32129 ft 446 kts 280°
2026-05-08 18:48 53.25587 0.33620 32139 ft 446 kts 279°
2026-05-08 18:49 53.26674 0.23427 32121 ft 445 kts 279°
2026-05-08 18:49 53.27750 0.13243 32120 ft 445 kts 279°
2026-05-08 18:50 53.28820 0.03069 32120 ft 444 kts 279°
2026-05-08 18:50 53.30060 -0.07041 32109 ft 444 kts 282°
2026-05-08 18:51 53.31441 -0.17108 32106 ft 444 kts 282°
2026-05-08 18:51 53.32797 -0.27176 32109 ft 444 kts 281°
2026-05-08 18:52 53.34110 -0.37194 32106 ft 444 kts 281°
2026-05-08 18:52 53.35410 -0.47286 32108 ft 444 kts 281°
2026-05-08 18:53 53.36700 -0.57385 32107 ft 444 kts 281°
2026-05-08 18:53 53.37983 -0.67502 32105 ft 444 kts 281°
2026-05-08 18:54 53.39258 -0.77620 32106 ft 444 kts 281°
2026-05-08 18:54 53.40525 -0.87756 32102 ft 444 kts 281°
2026-05-08 18:55 53.42411 -1.02968 32103 ft 445 kts 281°
2026-05-08 18:56 53.43658 -1.13128 32101 ft 445 kts 280°
2026-05-08 18:56 53.44896 -1.23282 32099 ft 444 kts 280°
2026-05-08 18:57 53.46125 -1.33447 32103 ft 444 kts 280°
2026-05-08 18:57 53.47344 -1.43610 32104 ft 444 kts 280°
2026-05-08 18:58 53.48555 -1.53777 32099 ft 444 kts 280°
2026-05-08 18:58 53.49758 -1.63945 32103 ft 444 kts 279°
2026-05-08 18:59 53.50951 -1.74127 32095 ft 444 kts 279°
2026-05-08 18:59 53.52136 -1.84311 32103 ft 444 kts 279°
2026-05-08 19:00 53.53312 -1.94502 32097 ft 444 kts 279°
2026-05-08 19:00 53.54481 -2.04707 32100 ft 445 kts 279°
2026-05-08 19:01 53.55642 -2.14918 32101 ft 445 kts 278°
2026-05-08 19:01 53.56794 -2.25146 32092 ft 445 kts 278°
2026-05-08 19:02 53.57937 -2.35378 32089 ft 445 kts 278°
2026-05-08 19:02 53.59064 -2.45541 32093 ft 444 kts 278°
2026-05-08 19:03 53.60190 -2.55773 32096 ft 444 kts 278°
2026-05-08 19:03 53.61306 -2.66004 32098 ft 444 kts 278°
2026-05-08 19:04 53.62412 -2.76236 32091 ft 444 kts 278°
2026-05-08 19:04 53.63508 -2.86464 32095 ft 443 kts 278°
2026-05-08 19:05 53.64596 -2.96691 32095 ft 443 kts 277°
2026-05-08 19:05 53.65673 -3.06912 32096 ft 443 kts 277°
2026-05-08 19:06 53.66742 -3.17136 32109 ft 443 kts 277°
2026-05-08 19:06 53.67715 -3.26531 32101 ft 443 kts 277°
2026-05-08 19:07 53.68592 -3.35056 32103 ft 443 kts 277°
2026-05-08 19:07 53.69372 -3.42706 32122 ft 443 kts 277°
2026-05-08 19:08 53.70133 -3.50230 32115 ft 443 kts 277°
2026-05-08 19:08 53.70982 -3.58653 32119 ft 442 kts 277°
2026-05-08 19:09 53.71890 -3.67712 32136 ft 442 kts 276°
2026-05-08 19:09 53.72841 -3.77298 32113 ft 441 kts 276°
2026-05-08 19:10 53.73779 -3.86840 32116 ft 441 kts 276°
2026-05-08 19:10 53.74735 -3.96649 32122 ft 440 kts 276°
2026-05-08 19:11 53.75696 -4.06593 32115 ft 440 kts 276°
2026-05-08 19:11 53.76616 -4.16208 32122 ft 440 kts 276°
2026-05-08 19:12 53.77543 -4.25995 32130 ft 441 kts 276°
2026-05-08 19:12 53.78463 -4.35794 32122 ft 441 kts 276°
2026-05-08 19:13 53.79331 -4.45093 32121 ft 441 kts 275°
2026-05-08 19:13 53.80018 -4.53062 32114 ft 440 kts 272°
2026-05-08 19:14 53.80306 -4.60322 32123 ft 439 kts 270°
2026-05-08 19:14 53.80525 -4.68079 32131 ft 439 kts 270°
2026-05-08 19:15 53.80753 -4.75259 32151 ft 439 kts 270°
2026-05-08 19:15 53.80986 -4.82122 32116 ft 440 kts 270°
2026-05-08 19:16 53.81206 -4.88859 32051 ft 441 kts 270°
2026-05-08 19:16 53.81417 -4.95516 32156 ft 439 kts 270°
2026-05-08 19:17 53.81623 -5.02165 32112 ft 440 kts 270°
2026-05-08 19:17 53.81863 -5.10012 32134 ft 439 kts 270°
2026-05-08 19:18 53.82137 -5.19164 32134 ft 439 kts 270°
2026-05-08 19:18 53.82436 -5.29464 32146 ft 439 kts 269°
2026-05-08 19:19 53.82727 -5.39806 32145 ft 440 kts 269°
2026-05-08 19:19 53.83110 -5.49159 32143 ft 442 kts 274°
2026-05-08 19:20 53.84424 -5.59291 32146 ft 447 kts 281°
2026-05-08 19:20 53.86057 -5.69347 32168 ft 447 kts 281°
2026-05-08 19:21 53.87670 -5.79504 32153 ft 446 kts 280°
2026-05-08 19:21 53.89260 -5.89660 32142 ft 445 kts 280°
2026-05-08 19:22 53.90835 -5.99810 32148 ft 444 kts 280°
2026-05-08 19:22 53.92397 -6.09938 32146 ft 443 kts 280°
2026-05-08 19:23 53.93948 -6.20058 32149 ft 443 kts 279°
2026-05-08 19:23 53.95489 -6.30178 32150 ft 443 kts 279°
2026-05-08 19:24 53.97013 -6.40239 32152 ft 443 kts 279°
2026-05-08 19:24 53.98539 -6.50386 32150 ft 444 kts 279°
2026-05-08 19:25 54.00060 -6.60563 32153 ft 444 kts 279°
2026-05-08 19:25 54.01573 -6.70752 32155 ft 445 kts 279°
2026-05-08 19:26 54.03082 -6.80964 32149 ft 445 kts 279°
2026-05-08 19:26 54.04579 -6.91178 32160 ft 445 kts 279°
2026-05-08 19:27 54.06070 -7.01416 32158 ft 445 kts 278°
2026-05-08 19:27 54.07550 -7.11631 32153 ft 444 kts 278°
2026-05-08 19:28 54.09015 -7.21816 32149 ft 442 kts 278°
2026-05-08 19:28 54.10465 -7.31968 32156 ft 441 kts 278°
2026-05-08 19:29 54.11904 -7.42113 32171 ft 440 kts 278°
2026-05-08 19:29 54.13335 -7.52262 32160 ft 441 kts 278°
2026-05-08 19:30 54.14759 -7.62438 32150 ft 441 kts 278°
2026-05-08 19:30 54.16176 -7.72629 32162 ft 442 kts 277°
2026-05-08 19:31 54.17587 -7.82844 32157 ft 443 kts 277°
2026-05-08 19:31 54.18981 -7.93011 32162 ft 444 kts 277°
2026-05-08 19:32 54.20382 -8.03287 32167 ft 444 kts 277°
2026-05-08 19:32 54.21775 -8.13577 32168 ft 444 kts 277°
2026-05-08 19:33 54.22934 -8.22194 32162 ft 444 kts 277°
2026-05-08 19:33 54.24307 -8.32466 32153 ft 442 kts 277°
2026-05-08 19:34 54.25654 -8.42614 32159 ft 440 kts 277°
2026-05-08 19:34 54.26996 -8.52797 32202 ft 438 kts 277°
2026-05-08 19:35 54.28324 -8.62961 32193 ft 437 kts 276°
2026-05-08 19:35 54.29643 -8.73125 32188 ft 438 kts 276°
2026-05-08 19:36 54.30957 -8.83314 32185 ft 438 kts 276°
2026-05-08 19:36 54.32248 -8.93399 32184 ft 439 kts 276°
2026-05-08 19:37 54.33548 -9.03625 32188 ft 439 kts 276°
2026-05-08 19:37 54.34833 -9.13812 32195 ft 440 kts 276°
2026-05-08 19:38 54.36119 -9.24080 32188 ft 441 kts 276°
2026-05-08 19:38 54.37398 -9.34365 32190 ft 441 kts 276°
2026-05-08 19:39 54.38669 -9.44665 32235 ft 441 kts 276°
2026-05-08 19:39 54.39931 -9.54970 32213 ft 441 kts 275°
2026-05-08 19:40 54.41000 -9.63759 32208 ft 439 kts 275°
2026-05-08 19:40 54.42237 -9.74007 32210 ft 438 kts 275°
2026-05-08 19:41 54.43463 -9.84237 32213 ft 437 kts 275°
2026-05-08 19:41 54.44668 -9.94383 32224 ft 436 kts 275°
2026-05-08 19:42 54.45859 -10.04484 32227 ft 436 kts 275°
2026-05-08 19:42 54.46985 -10.14020 32230 ft 437 kts 276°
2026-05-08 19:43 54.48138 -10.22997 32244 ft 438 kts 276°
2026-05-08 19:43 54.49299 -10.31801 32233 ft 439 kts 276°
2026-05-08 19:44 54.50517 -10.41135 32233 ft 439 kts 276°
2026-05-08 19:44 54.51737 -10.50622 32239 ft 440 kts 276°
2026-05-08 19:45 54.52777 -10.58809 32244 ft 440 kts 276°
2026-05-08 19:45 54.53853 -10.67333 32279 ft 440 kts 276°
2026-05-08 19:46 54.54872 -10.75463 32196 ft 441 kts 276°
2026-05-08 19:46 54.56268 -10.86667 32248 ft 438 kts 276°
2026-05-08 19:47 54.57183 -10.94069 32214 ft 438 kts 276°
2026-05-08 19:47 54.58072 -11.01281 32238 ft 437 kts 276°
2026-05-08 19:48 54.58839 -11.07549 32219 ft 437 kts 276°
2026-05-08 19:48 54.59777 -11.15254 32186 ft 437 kts 276°
2026-05-08 19:49 54.60737 -11.23164 32232 ft 436 kts 276°
2026-05-08 19:49 54.61886 -11.32685 32248 ft 436 kts 276°
2026-05-08 19:50 54.63066 -11.42544 32261 ft 436 kts 276°
2026-05-08 19:50 54.64276 -11.52740 32260 ft 437 kts 275°
2026-05-08 19:51 54.65438 -11.62615 32259 ft 437 kts 275°
2026-05-08 19:51 54.66612 -11.72664 32264 ft 438 kts 275°
2026-05-08 19:52 54.67811 -11.82999 32264 ft 438 kts 275°
2026-05-08 19:52 54.68980 -11.93160 32274 ft 438 kts 276°
2026-05-08 19:53 54.70142 -12.03343 32271 ft 438 kts 276°
2026-05-08 19:53 54.71290 -12.13472 32269 ft 438 kts 276°
2026-05-08 19:54 54.72440 -12.23706 32274 ft 438 kts 276°
2026-05-08 19:54 54.73577 -12.33909 32275 ft 438 kts 276°
2026-05-08 19:55 54.74705 -12.44113 32283 ft 438 kts 275°
2026-05-08 19:55 54.75831 -12.54384 32292 ft 438 kts 276°
2026-05-08 19:56 54.76951 -12.64690 32284 ft 438 kts 276°
2026-05-08 19:56 54.78065 -12.75024 32285 ft 439 kts 275°
2026-05-08 19:57 54.79165 -12.85314 32295 ft 439 kts 275°
2026-05-08 19:57 54.80262 -12.95663 32295 ft 440 kts 275°
2026-05-08 19:58 54.81343 -13.05953 32290 ft 440 kts 275°
2026-05-08 19:58 54.82425 -13.16336 32300 ft 441 kts 276°
2026-05-08 19:59 54.83490 -13.26644 32300 ft 442 kts 276°
2026-05-08 19:59 54.84554 -13.37041 32308 ft 442 kts 276°
2026-05-08 20:00 54.85612 -13.47469 32313 ft 442 kts 276°
2026-05-08 20:00 54.86669 -13.57973 32308 ft 442 kts 275°
2026-05-08 20:01 54.87713 -13.68452 32307 ft 442 kts 275°
2026-05-08 20:01 54.88748 -13.78939 32305 ft 443 kts 276°
2026-05-08 20:02 54.89775 -13.89436 32319 ft 443 kts 276°
2026-05-08 20:02 54.90796 -13.99982 32318 ft 444 kts 276°
2026-05-08 20:03 54.91811 -14.10553 32325 ft 445 kts 276°
2026-05-08 20:03 54.92812 -14.21088 32324 ft 445 kts 275°
2026-05-08 20:04 54.93811 -14.31704 32330 ft 445 kts 276°
2026-05-08 20:04 54.94807 -14.42409 32340 ft 457 kts 277°
2026-05-08 20:05 54.95819 -14.53377 32332 ft 462 kts 277°
2026-05-08 20:05 54.96815 -14.64269 32338 ft 461 kts 277°
2026-05-08 20:06 54.97807 -14.75245 32332 ft 460 kts 277°
2026-05-08 20:06 54.98788 -14.86235 32345 ft 458 kts 277°
2026-05-08 20:07 54.99748 -14.97072 32337 ft 458 kts 278°
2026-05-08 20:07 55.00229 -15.08043 32358 ft 458 kts 271°
2026-05-08 20:08 55.00412 -15.19157 32358 ft 460 kts 271°
2026-05-08 20:08 55.00596 -15.30214 32351 ft 462 kts 271°
2026-05-08 20:09 55.00786 -15.41363 32353 ft 463 kts 271°
2026-05-08 20:09 55.00972 -15.52530 32346 ft 464 kts 272°
2026-05-08 20:10 55.01148 -15.63653 32355 ft 466 kts 272°
2026-05-08 20:10 55.01314 -15.74828 32362 ft 466 kts 272°
2026-05-08 20:11 55.01470 -15.86003 32354 ft 467 kts 272°
2026-05-08 20:11 55.01616 -15.97256 32380 ft 466 kts 272°
2026-05-08 20:12 55.01749 -16.08379 32347 ft 467 kts 273°
2026-05-08 20:12 55.01876 -16.19670 32381 ft 469 kts 273°
2026-05-08 20:13 55.01991 -16.30908 32360 ft 471 kts 272°
2026-05-08 20:13 55.02097 -16.42314 32381 ft 473 kts 273°
2026-05-08 20:14 55.02192 -16.53652 32376 ft 475 kts 272°
2026-05-08 20:14 55.02276 -16.65022 32366 ft 476 kts 273°
2026-05-08 20:15 55.02349 -16.76154 32379 ft 477 kts 273°
2026-05-08 20:15 55.02410 -16.86930 32384 ft 479 kts 273°
2026-05-08 20:16 55.02464 -16.98497 32382 ft 481 kts 273°
2026-05-08 20:16 55.02508 -17.10136 32383 ft 482 kts 273°
2026-05-08 20:17 55.02540 -17.21805 32381 ft 482 kts 272°
2026-05-08 20:17 55.02561 -17.33433 32386 ft 482 kts 272°
2026-05-08 20:18 55.02571 -17.45082 32386 ft 481 kts 272°
2026-05-08 20:18 55.02570 -17.56720 32391 ft 480 kts 272°
2026-05-08 20:19 55.02558 -17.68315 32383 ft 481 kts 273°
2026-05-08 20:19 55.02535 -17.79955 32375 ft 483 kts 274°
2026-05-08 20:20 55.02502 -17.91628 32403 ft 487 kts 274°
2026-05-08 20:20 55.02466 -18.01483 32400 ft 491 kts 274°
2026-05-08 20:21 55.02409 -18.13413 32406 ft 494 kts 274°
2026-05-08 20:21 55.02340 -18.25359 32408 ft 496 kts 274°
2026-05-08 20:22 55.02259 -18.37369 32388 ft 496 kts 274°
2026-05-08 20:22 55.02166 -18.49386 32409 ft 496 kts 274°
2026-05-08 20:23 55.02063 -18.61401 32409 ft 496 kts 274°
2026-05-08 20:23 55.01947 -18.73417 32409 ft 496 kts 274°
2026-05-08 20:24 55.01819 -18.85428 32409 ft 495 kts 274°
2026-05-08 20:24 55.01680 -18.97414 32408 ft 495 kts 275°
2026-05-08 20:25 55.01530 -19.09422 32415 ft 496 kts 275°
2026-05-08 20:25 55.01367 -19.21453 32416 ft 497 kts 275°
2026-05-08 20:26 55.01191 -19.33498 32424 ft 498 kts 274°
2026-05-08 20:26 55.01003 -19.45552 32413 ft 498 kts 274°
2026-05-08 20:27 55.00802 -19.57619 32417 ft 498 kts 275°
2026-05-08 20:27 55.00592 -19.69584 32427 ft 498 kts 275°
2026-05-08 20:28 55.00368 -19.81645 32429 ft 499 kts 275°
2026-05-08 20:28 55.00132 -19.93717 32428 ft 499 kts 275°
2026-05-08 20:29 54.99729 -20.05805 32403 ft 502 kts 271°
2026-05-08 20:29 54.99018 -20.17893 32430 ft 501 kts 271°
2026-05-08 20:30 54.98279 -20.29929 32437 ft 501 kts 271°
2026-05-08 20:30 54.97544 -20.41955 32439 ft 500 kts 271°
2026-05-08 20:31 54.96810 -20.53962 32429 ft 500 kts 271°
2026-05-08 20:31 54.96070 -20.65929 32426 ft 499 kts 271°
2026-05-08 20:32 54.95315 -20.77921 32437 ft 498 kts 271°
2026-05-08 20:32 54.94555 -20.89812 32444 ft 498 kts 270°
2026-05-08 20:33 54.93776 -21.01790 32446 ft 498 kts 270°
2026-05-08 20:33 54.92985 -21.13784 32445 ft 499 kts 270°
2026-05-08 20:34 54.92182 -21.25746 32437 ft 498 kts 270°
2026-05-08 20:35 54.90958 -21.43681 32445 ft 499 kts 270°
2026-05-08 20:35 54.90125 -21.55657 32445 ft 499 kts 270°
2026-05-08 20:36 54.89281 -21.67630 32434 ft 500 kts 271°
2026-05-08 20:36 54.88422 -21.79597 32447 ft 499 kts 272°
2026-05-08 20:37 54.87554 -21.91561 32449 ft 500 kts 271°
2026-05-08 20:37 54.86675 -22.03529 32461 ft 500 kts 271°
2026-05-08 20:38 54.85782 -22.15501 32456 ft 501 kts 271°
2026-05-08 20:38 54.84875 -22.27486 32430 ft 501 kts 271°
2026-05-08 20:39 54.83956 -22.39461 32458 ft 501 kts 272°
2026-05-08 20:39 54.83027 -22.51433 32462 ft 501 kts 272°
2026-05-08 20:40 54.82085 -22.63401 32464 ft 501 kts 271°
2026-05-08 20:40 54.81130 -22.75384 32464 ft 502 kts 271°
2026-05-08 20:41 54.80163 -22.87355 32458 ft 502 kts 271°
2026-05-08 20:41 54.79191 -22.99247 32464 ft 502 kts 271°
2026-05-08 20:42 54.78194 -23.11288 32465 ft 502 kts 271°
2026-05-08 20:42 54.77198 -23.23169 32467 ft 501 kts 271°
2026-05-08 20:43 54.76184 -23.35124 32450 ft 501 kts 271°
2026-05-08 20:43 54.75159 -23.47059 32459 ft 501 kts 271°
2026-05-08 20:44 54.74123 -23.58989 32472 ft 501 kts 271°
2026-05-08 20:44 54.73076 -23.70915 32470 ft 502 kts 271°
2026-05-08 20:45 54.72015 -23.82845 32474 ft 502 kts 271°
2026-05-08 20:45 54.70941 -23.94778 32458 ft 502 kts 271°
2026-05-08 20:46 54.69856 -24.06690 32472 ft 501 kts 271°
2026-05-08 20:46 54.68761 -24.18584 32476 ft 501 kts 271°
2026-05-08 20:47 54.67656 -24.30457 32477 ft 500 kts 271°
2026-05-08 20:47 54.66542 -24.42301 32480 ft 499 kts 271°
2026-05-08 20:48 54.65417 -24.54122 32482 ft 498 kts 270°
2026-05-08 20:48 54.64285 -24.65909 32485 ft 497 kts 270°
2026-05-08 20:49 54.63142 -24.77680 32490 ft 497 kts 270°
2026-05-08 20:49 54.61988 -24.89437 32491 ft 497 kts 270°
2026-05-08 20:50 54.60823 -25.01193 32462 ft 497 kts 270°
2026-05-08 20:50 54.59645 -25.12936 32484 ft 497 kts 270°
2026-05-08 20:51 54.58465 -25.24589 32489 ft 497 kts 270°
2026-05-08 20:51 54.57266 -25.36317 32494 ft 497 kts 270°
2026-05-08 20:52 54.56054 -25.48051 32502 ft 497 kts 270°
2026-05-08 20:52 54.54829 -25.59789 32495 ft 497 kts 269°
2026-05-08 20:53 54.53596 -25.71489 32502 ft 497 kts 269°
2026-05-08 20:53 54.52352 -25.83186 32502 ft 497 kts 269°
2026-05-08 20:54 54.51095 -25.94885 32501 ft 497 kts 269°
2026-05-08 20:54 54.49827 -26.06580 32477 ft 497 kts 269°
2026-05-08 20:55 54.48549 -26.18251 32498 ft 496 kts 269°
2026-05-08 20:55 54.47267 -26.29847 32507 ft 496 kts 269°
2026-05-08 20:56 54.45968 -26.41491 32503 ft 495 kts 268°
2026-05-08 20:56 54.44660 -26.53099 32504 ft 494 kts 268°
2026-05-08 20:57 54.43345 -26.64678 32498 ft 493 kts 268°
2026-05-08 20:57 54.42023 -26.76218 32504 ft 492 kts 268°
2026-05-08 20:58 54.40690 -26.87751 32507 ft 493 kts 268°
2026-05-08 20:58 54.39345 -26.99286 32508 ft 493 kts 268°
2026-05-08 20:59 54.37986 -27.10831 32509 ft 494 kts 268°
2026-05-08 20:59 54.36615 -27.22377 32513 ft 494 kts 267°
2026-05-08 21:00 54.35230 -27.33940 32515 ft 495 kts 267°
2026-05-08 21:00 54.33832 -27.45516 32522 ft 497 kts 267°
2026-05-08 21:01 54.32419 -27.57107 32520 ft 497 kts 267°
2026-05-08 21:01 54.31002 -27.68637 32482 ft 498 kts 267°
2026-05-08 21:02 54.29554 -27.80312 32508 ft 498 kts 266°
2026-05-08 21:02 54.28113 -27.91845 32514 ft 499 kts 266°
2026-05-08 21:03 54.26648 -28.03463 32512 ft 500 kts 266°
2026-05-08 21:03 54.25172 -28.15081 32512 ft 500 kts 266°
2026-05-08 21:04 54.23683 -28.26693 32513 ft 500 kts 266°
2026-05-08 21:04 54.22182 -28.38308 32517 ft 500 kts 266°
2026-05-08 21:05 54.20672 -28.49901 32515 ft 500 kts 266°
2026-05-08 21:05 54.19150 -28.61487 32502 ft 500 kts 266°
2026-05-08 21:06 54.17617 -28.73069 32484 ft 499 kts 266°
2026-05-08 21:06 54.16077 -28.84615 32509 ft 499 kts 266°
2026-05-08 21:07 54.14524 -28.96165 32517 ft 500 kts 266°
2026-05-08 21:07 54.13224 -29.05767 32521 ft 501 kts 265°
2026-05-08 21:08 54.11645 -29.17339 32522 ft 501 kts 265°
2026-05-08 21:08 54.10054 -29.28909 32524 ft 502 kts 265°
2026-05-08 21:09 54.08450 -29.40484 32535 ft 502 kts 265°
2026-05-08 21:09 54.06833 -29.52061 32531 ft 503 kts 265°
2026-05-08 21:10 54.05201 -29.63655 32528 ft 504 kts 265°
2026-05-08 21:10 54.03557 -29.75242 32504 ft 504 kts 265°
2026-05-08 21:11 54.01903 -29.86809 32532 ft 504 kts 264°
2026-05-08 21:11 54.00239 -29.98381 32542 ft 504 kts 264°
2026-05-08 21:12 53.98530 -30.09957 32541 ft 505 kts 264°
2026-05-08 21:12 53.96768 -30.21520 32543 ft 505 kts 264°
2026-05-08 21:13 53.94993 -30.33065 32535 ft 505 kts 264°
2026-05-08 21:13 53.93214 -30.44595 32540 ft 505 kts 264°
2026-05-08 21:14 53.91426 -30.56129 32544 ft 505 kts 263°
2026-05-08 21:14 53.89641 -30.67575 32545 ft 506 kts 263°
2026-05-08 21:15 53.87829 -30.79101 32513 ft 506 kts 263°
2026-05-08 21:15 53.86006 -30.90610 32529 ft 505 kts 263°
2026-05-08 21:16 53.84176 -31.02087 32540 ft 504 kts 263°
2026-05-08 21:16 53.82337 -31.13542 32548 ft 503 kts 263°
2026-05-08 21:17 53.80492 -31.24964 32554 ft 503 kts 263°
2026-05-08 21:17 53.78638 -31.36363 32547 ft 502 kts 263°
2026-05-08 21:18 53.76775 -31.47738 32548 ft 502 kts 263°
2026-05-08 21:18 53.74902 -31.59104 32552 ft 502 kts 263°
2026-05-08 21:19 53.73018 -31.70463 32555 ft 502 kts 263°
2026-05-08 21:19 53.71133 -31.81748 32527 ft 502 kts 263°
2026-05-08 21:20 53.69226 -31.93084 32549 ft 502 kts 263°
2026-05-08 21:20 53.67310 -32.04410 32557 ft 502 kts 263°
2026-05-08 21:21 53.65383 -32.15724 32552 ft 502 kts 262°
2026-05-08 21:21 53.63446 -32.27022 32556 ft 502 kts 262°
2026-05-08 21:22 53.61499 -32.38304 32547 ft 501 kts 262°
2026-05-08 21:22 53.59545 -32.49558 32550 ft 500 kts 262°
2026-05-08 21:23 53.57583 -32.60791 32556 ft 500 kts 262°
2026-05-08 21:23 53.55613 -32.71998 32555 ft 500 kts 262°
2026-05-08 21:24 53.53632 -32.83197 32538 ft 499 kts 262°
2026-05-08 21:24 53.51643 -32.94366 32549 ft 499 kts 262°
2026-05-08 21:25 53.49645 -33.05522 32554 ft 498 kts 261°
2026-05-08 21:25 53.47638 -33.16661 32538 ft 498 kts 261°
2026-05-08 21:26 53.45624 -33.27765 32547 ft 497 kts 261°
2026-05-08 21:26 53.43606 -33.38825 32550 ft 495 kts 261°
2026-05-08 21:27 53.41581 -33.49861 32552 ft 495 kts 261°
2026-05-08 21:27 53.39550 -33.60866 32553 ft 494 kts 261°
2026-05-08 21:28 53.37510 -33.71855 32549 ft 494 kts 261°
2026-05-08 21:28 53.35460 -33.82833 32549 ft 494 kts 260°
2026-05-08 21:29 53.33398 -33.93803 32549 ft 494 kts 260°
2026-05-08 21:29 53.31328 -34.04756 32548 ft 494 kts 260°
2026-05-08 21:30 53.29246 -34.15712 32549 ft 494 kts 260°
2026-05-08 21:30 53.27153 -34.26656 32515 ft 494 kts 260°
2026-05-08 21:31 53.25054 -34.37569 32540 ft 493 kts 259°
2026-05-08 21:31 53.22961 -34.48383 32544 ft 492 kts 259°
2026-05-08 21:32 53.20835 -34.59315 32541 ft 492 kts 259°
2026-05-08 21:32 53.18728 -34.70091 32542 ft 492 kts 259°
2026-05-08 21:33 53.16599 -34.80915 32536 ft 491 kts 259°
2026-05-08 21:33 53.14465 -34.91705 32538 ft 490 kts 259°
2026-05-08 21:34 53.12321 -35.02488 32533 ft 490 kts 259°
2026-05-08 21:34 53.10171 -35.13235 32531 ft 490 kts 259°
2026-05-08 21:35 53.08011 -35.23981 32508 ft 490 kts 258°
2026-05-08 21:35 53.05842 -35.34701 32525 ft 489 kts 258°
2026-05-08 21:36 53.03667 -35.45397 32531 ft 488 kts 258°
2026-05-08 21:36 53.01484 -35.56078 32525 ft 488 kts 258°
2026-05-08 21:37 52.99293 -35.66741 32519 ft 488 kts 258°
2026-05-08 21:37 52.97095 -35.77380 32512 ft 487 kts 258°
2026-05-08 21:38 52.94900 -35.87950 32510 ft 488 kts 257°
2026-05-08 21:38 52.92679 -35.98588 32521 ft 489 kts 257°
2026-05-08 21:39 52.90444 -36.09237 32506 ft 490 kts 257°
2026-05-08 21:39 52.88195 -36.19890 32487 ft 490 kts 257°
2026-05-08 21:40 52.85932 -36.30560 32496 ft 491 kts 257°
2026-05-08 21:40 52.83659 -36.41216 32502 ft 491 kts 257°
2026-05-08 21:41 52.80229 -36.57195 32491 ft 492 kts 257°
2026-05-08 21:41 52.77944 -36.67770 32468 ft 492 kts 256°
2026-05-08 21:42 52.75636 -36.78395 32482 ft 491 kts 256°
2026-05-08 21:42 52.73318 -36.89013 32480 ft 491 kts 256°
2026-05-08 21:43 52.70992 -36.99610 32484 ft 492 kts 256°
2026-05-08 21:43 52.68655 -37.10208 32467 ft 492 kts 256°
2026-05-08 21:44 52.66310 -37.20785 32470 ft 491 kts 256°
2026-05-08 21:44 52.63957 -37.31343 32473 ft 491 kts 256°
2026-05-08 21:45 52.61596 -37.41887 32457 ft 491 kts 255°
2026-05-08 21:45 52.59225 -37.52418 32450 ft 491 kts 255°
2026-05-08 21:46 52.56848 -37.62928 32436 ft 490 kts 255°
2026-05-08 21:46 52.54461 -37.73426 32448 ft 490 kts 255°
2026-05-08 21:47 52.52071 -37.83886 32452 ft 489 kts 255°
2026-05-08 21:47 52.49688 -37.94263 32448 ft 489 kts 255°
2026-05-08 21:48 52.47281 -38.04699 32445 ft 489 kts 255°
2026-05-08 21:48 52.44863 -38.15127 32438 ft 489 kts 255°
2026-05-08 21:49 52.42437 -38.25540 32438 ft 489 kts 254°
2026-05-08 21:49 52.40000 -38.35948 32430 ft 489 kts 254°
2026-05-08 21:50 52.37555 -38.46342 32435 ft 490 kts 254°
2026-05-08 21:50 52.35093 -38.56753 32414 ft 489 kts 254°
2026-05-08 21:51 52.32644 -38.67063 32424 ft 489 kts 254°
2026-05-08 21:51 52.30171 -38.77423 32425 ft 489 kts 253°
2026-05-08 21:52 52.27692 -38.87759 32412 ft 489 kts 253°
2026-05-08 21:52 52.25202 -38.98093 32400 ft 489 kts 253°
2026-05-08 21:53 52.22708 -39.08392 32411 ft 488 kts 253°
2026-05-08 21:53 52.20207 -39.18669 32412 ft 487 kts 253°
2026-05-08 21:54 52.17700 -39.28927 32404 ft 487 kts 253°
2026-05-08 21:54 52.15187 -39.39163 32404 ft 487 kts 253°
2026-05-08 21:55 52.12668 -39.49376 32402 ft 486 kts 252°
2026-05-08 21:56 52.09303 -39.62940 32383 ft 485 kts 252°
2026-05-08 21:56 52.06769 -39.73097 32385 ft 484 kts 252°
2026-05-08 21:57 52.04229 -39.83232 32381 ft 484 kts 252°
2026-05-08 21:57 52.01684 -39.93349 32378 ft 483 kts 251°
2026-05-08 21:58 51.99380 -40.03555 32369 ft 479 kts 259°
2026-05-08 21:58 51.97830 -40.14045 32371 ft 478 kts 260°
2026-05-08 21:59 51.96292 -40.24466 32362 ft 478 kts 260°
2026-05-08 21:59 51.94707 -40.34950 32346 ft 479 kts 259°
2026-05-08 22:00 51.93098 -40.45421 32354 ft 479 kts 259°
2026-05-08 22:00 51.91475 -40.55883 32350 ft 479 kts 259°
2026-05-08 22:01 51.89845 -40.66335 32352 ft 479 kts 259°
2026-05-08 22:01 51.88206 -40.76778 32337 ft 479 kts 259°
2026-05-08 22:02 51.86559 -40.87216 32330 ft 478 kts 258°
2026-05-08 22:02 51.84905 -40.97625 32341 ft 477 kts 258°
2026-05-08 22:03 51.83248 -41.07988 32326 ft 475 kts 258°
2026-05-08 22:03 51.81589 -41.18301 32310 ft 473 kts 258°
2026-05-08 22:04 51.79927 -41.28571 32312 ft 471 kts 257°
2026-05-08 22:04 51.78261 -41.38802 32313 ft 470 kts 257°
2026-05-08 22:05 51.76591 -41.48995 32304 ft 469 kts 257°
2026-05-08 22:05 51.74926 -41.59099 32301 ft 468 kts 257°
2026-05-08 22:06 51.73244 -41.69242 32296 ft 468 kts 257°
2026-05-08 22:06 51.71555 -41.79376 32294 ft 468 kts 257°
2026-05-08 22:07 51.69853 -41.89524 32289 ft 469 kts 256°
2026-05-08 22:07 51.68142 -41.99663 32278 ft 469 kts 256°
2026-05-08 22:08 51.66420 -42.09805 32286 ft 469 kts 256°
2026-05-08 22:08 51.64690 -42.19943 32272 ft 469 kts 255°
2026-05-08 22:09 51.62951 -42.30065 32264 ft 469 kts 255°
2026-05-08 22:09 51.61204 -42.40181 32260 ft 469 kts 255°
2026-05-08 22:10 51.59451 -42.50271 32264 ft 468 kts 255°
2026-05-08 22:10 51.57692 -42.60340 32254 ft 467 kts 255°
2026-05-08 22:11 51.55929 -42.70374 32248 ft 467 kts 255°
2026-05-08 22:11 51.54160 -42.80391 32242 ft 467 kts 254°
2026-05-08 22:12 51.52389 -42.90358 32249 ft 467 kts 254°
2026-05-08 22:12 51.50597 -43.00392 32243 ft 467 kts 254°
2026-05-08 22:13 51.48797 -43.10411 32229 ft 467 kts 254°
2026-05-08 22:13 51.46987 -43.20427 32224 ft 468 kts 254°
2026-05-08 22:14 51.45170 -43.30431 32243 ft 467 kts 254°
2026-05-08 22:14 51.43341 -43.40448 32228 ft 467 kts 253°
2026-05-08 22:15 51.41506 -43.50442 32221 ft 468 kts 253°
2026-05-08 22:15 51.39674 -43.60362 32198 ft 468 kts 253°
2026-05-08 22:16 51.37822 -43.70342 32205 ft 467 kts 253°
2026-05-08 22:16 51.35961 -43.80312 32200 ft 467 kts 253°
2026-05-08 22:17 51.34094 -43.90267 32181 ft 468 kts 252°
2026-05-08 22:17 51.32214 -44.00231 32174 ft 469 kts 252°
2026-05-08 22:18 51.30326 -44.10188 32171 ft 469 kts 252°
2026-05-08 22:18 51.28424 -44.20163 32175 ft 468 kts 252°
2026-05-08 22:19 51.26517 -44.30119 32164 ft 468 kts 252°
2026-05-08 22:19 51.24602 -44.40059 32160 ft 469 kts 252°
2026-05-08 22:20 51.22680 -44.49983 32147 ft 468 kts 251°
2026-05-08 22:20 51.20751 -44.59891 32146 ft 467 kts 251°
2026-05-08 22:21 51.18832 -44.69701 32137 ft 466 kts 251°
2026-05-08 22:21 51.16894 -44.79554 32137 ft 466 kts 251°
2026-05-08 22:22 51.14949 -44.89392 32115 ft 466 kts 251°
2026-05-08 22:22 51.12997 -44.99219 32119 ft 466 kts 251°
2026-05-08 22:23 51.11033 -45.09052 32113 ft 466 kts 250°
2026-05-08 22:23 51.09061 -45.18880 32110 ft 466 kts 250°
2026-05-08 22:24 51.07079 -45.28707 32106 ft 467 kts 250°
2026-05-08 22:24 51.05089 -45.38522 32083 ft 467 kts 250°
2026-05-08 22:25 51.03089 -45.48338 32086 ft 466 kts 250°
2026-05-08 22:25 51.01097 -45.58071 32109 ft 466 kts 250°
2026-05-08 22:26 50.99086 -45.67843 32077 ft 465 kts 250°
2026-05-08 22:26 50.97075 -45.77575 32079 ft 463 kts 249°
2026-05-08 22:27 50.95061 -45.87269 32053 ft 462 kts 249°
2026-05-08 22:27 50.93041 -45.96941 32055 ft 462 kts 249°
2026-05-08 22:28 50.91014 -46.06603 32049 ft 462 kts 249°
2026-05-08 22:28 50.88978 -46.16260 32045 ft 462 kts 249°
2026-05-08 22:29 50.86931 -46.25925 32027 ft 463 kts 249°
2026-05-08 22:29 50.84873 -46.35595 32021 ft 464 kts 249°
2026-05-08 22:30 50.82802 -46.45280 32017 ft 465 kts 249°
2026-05-08 22:30 50.80723 -46.54955 32019 ft 465 kts 248°
2026-05-08 22:31 50.78637 -46.64623 32010 ft 465 kts 248°
2026-05-08 22:31 50.76539 -46.74298 31994 ft 465 kts 248°
2026-05-08 22:32 50.74435 -46.83950 31992 ft 465 kts 248°
2026-05-08 22:32 50.72323 -46.93598 31983 ft 464 kts 248°
2026-05-08 22:33 50.70206 -47.03222 31983 ft 464 kts 248°
2026-05-08 22:33 50.68083 -47.12832 31974 ft 464 kts 247°
2026-05-08 22:34 50.65971 -47.22345 31972 ft 462 kts 247°
2026-05-08 22:34 50.63842 -47.31891 31968 ft 461 kts 247°
2026-05-08 22:35 50.61713 -47.41396 31972 ft 460 kts 247°
2026-05-08 22:35 50.59580 -47.50875 31959 ft 459 kts 247°
2026-05-08 22:36 50.57442 -47.60331 31952 ft 459 kts 247°
2026-05-08 22:36 50.55294 -47.69789 31944 ft 459 kts 246°
2026-05-08 22:37 50.53137 -47.79245 31967 ft 460 kts 246°
2026-05-08 22:37 50.50973 -47.88689 31949 ft 459 kts 246°
2026-05-08 22:38 50.48808 -47.98100 31936 ft 457 kts 246°
2026-05-08 22:38 50.46642 -48.07472 31934 ft 456 kts 246°
2026-05-08 22:39 50.44470 -48.16825 31925 ft 456 kts 246°
2026-05-08 22:39 50.42296 -48.26150 31907 ft 455 kts 246°
2026-05-08 22:40 50.40113 -48.35468 31920 ft 455 kts 245°
2026-05-08 22:40 50.37924 -48.44776 31904 ft 455 kts 245°
2026-05-08 22:41 50.35725 -48.54087 31907 ft 456 kts 245°
2026-05-08 22:41 50.33514 -48.63403 31897 ft 457 kts 245°
2026-05-08 22:42 50.31295 -48.72717 31898 ft 457 kts 245°
2026-05-08 22:42 50.29069 -48.82019 31887 ft 457 kts 245°
2026-05-08 22:43 50.26834 -48.91320 31880 ft 457 kts 244°
2026-05-08 22:43 50.24603 -49.00566 31879 ft 457 kts 244°
2026-05-08 22:44 50.22353 -49.09851 31872 ft 457 kts 244°
2026-05-08 22:44 50.20095 -49.19126 31866 ft 456 kts 244°
2026-05-08 22:45 50.18202 -49.26874 31856 ft 456 kts 244°
2026-05-08 22:45 50.15935 -49.36120 31852 ft 456 kts 244°
2026-05-08 22:46 50.13662 -49.45349 31859 ft 456 kts 244°
2026-05-08 22:46 50.11395 -49.54514 31842 ft 456 kts 244°
2026-05-08 22:47 50.09107 -49.63722 31843 ft 456 kts 243°
2026-05-08 22:47 50.06812 -49.72927 31829 ft 456 kts 243°
2026-05-08 22:48 50.04508 -49.82124 31844 ft 456 kts 243°
2026-05-08 22:48 50.02199 -49.91302 31833 ft 456 kts 243°
2026-05-08 22:49 49.99885 -50.00474 31816 ft 455 kts 243°
2026-05-08 22:49 49.96549 -50.14305 31810 ft 456 kts 244°
2026-05-08 22:50 49.94347 -50.23535 31802 ft 455 kts 244°
2026-05-08 22:50 49.92130 -50.32735 31810 ft 455 kts 244°
2026-05-08 22:51 49.89897 -50.41929 31798 ft 455 kts 244°
2026-05-08 22:51 49.87658 -50.51100 31799 ft 455 kts 243°
2026-05-08 22:52 49.85413 -50.60261 31788 ft 455 kts 243°
2026-05-08 22:52 49.83161 -50.69413 31789 ft 454 kts 243°
2026-05-08 22:53 49.80902 -50.78554 31793 ft 455 kts 243°
2026-05-08 22:53 49.78651 -50.87627 31803 ft 454 kts 243°
2026-05-08 22:54 49.76364 -50.96808 31783 ft 454 kts 243°
2026-05-08 22:54 49.74102 -51.05852 31772 ft 453 kts 243°
2026-05-08 22:55 49.71823 -51.14928 31788 ft 452 kts 243°
2026-05-08 22:55 49.69538 -51.23990 31758 ft 453 kts 242°
2026-05-08 22:56 49.67244 -51.33051 31750 ft 453 kts 242°
2026-05-08 22:56 49.64944 -51.42097 31739 ft 453 kts 242°
2026-05-08 22:57 49.62636 -51.51140 31741 ft 453 kts 242°
2026-05-08 22:57 49.60316 -51.60194 31756 ft 454 kts 242°
2026-05-08 22:58 49.57988 -51.69240 31738 ft 454 kts 242°
2026-05-08 22:58 49.55650 -51.78291 31728 ft 454 kts 242°
2026-05-08 22:59 49.53305 -51.87329 31727 ft 454 kts 242°
2026-05-08 22:59 49.50956 -51.96353 31729 ft 454 kts 241°
2026-05-08 23:00 49.48639 -52.05374 31721 ft 453 kts 242°
2026-05-08 23:00 49.46413 -52.14423 31702 ft 452 kts 242°
2026-05-08 23:01 49.44198 -52.23436 31700 ft 450 kts 242°
2026-05-08 23:01 49.41968 -52.32422 31688 ft 450 kts 242°
2026-05-08 23:02 49.39724 -52.41389 31694 ft 450 kts 242°
2026-05-08 23:02 49.37483 -52.50298 31686 ft 451 kts 242°
2026-05-08 23:03 49.35220 -52.59265 31685 ft 450 kts 241°
2026-05-08 23:03 49.32953 -52.68214 31678 ft 450 kts 241°
2026-05-08 23:04 49.30679 -52.77153 31678 ft 450 kts 241°
2026-05-08 23:04 49.28401 -52.86075 31680 ft 450 kts 240°
2026-05-08 23:05 49.26116 -52.94989 31668 ft 449 kts 240°
2026-05-08 23:05 49.23834 -53.03859 31654 ft 447 kts 240°
2026-05-08 23:06 49.21551 -53.12696 31658 ft 445 kts 240°
2026-05-08 23:06 49.19268 -53.21497 31648 ft 445 kts 240°
2026-05-08 23:07 49.16982 -53.30273 31646 ft 445 kts 240°
2026-05-08 23:07 49.14687 -53.39050 31647 ft 445 kts 240°
2026-05-08 23:08 49.12382 -53.47831 31651 ft 446 kts 240°
2026-05-08 23:08 49.10071 -53.56607 31632 ft 446 kts 240°
2026-05-08 23:09 49.07751 -53.65383 31640 ft 446 kts 239°
2026-05-08 23:09 49.05422 -53.74160 31668 ft 447 kts 239°
2026-05-08 23:10 49.03099 -53.82879 31629 ft 447 kts 239°
2026-05-08 23:10 49.00742 -53.91697 31616 ft 446 kts 239°
2026-05-08 23:11 48.98413 -54.00377 31621 ft 445 kts 239°
2026-05-08 23:11 48.96068 -54.09082 31608 ft 444 kts 238°
2026-05-08 23:12 48.93717 -54.17772 31617 ft 444 kts 238°
2026-05-08 23:12 48.91357 -54.26462 31605 ft 444 kts 238°
2026-05-08 23:13 48.88995 -54.35134 31603 ft 444 kts 238°
2026-05-08 23:13 48.86628 -54.43790 31571 ft 443 kts 238°
2026-05-08 23:14 48.84259 -54.52425 31570 ft 443 kts 238°
2026-05-08 23:14 48.81885 -54.61043 31643 ft 443 kts 238°
2026-05-08 23:15 48.79516 -54.69608 31592 ft 443 kts 237°
2026-05-08 23:15 48.77128 -54.78216 31576 ft 442 kts 237°
2026-05-08 23:16 48.74741 -54.86792 31567 ft 441 kts 237°
2026-05-08 23:16 48.72351 -54.95343 31558 ft 440 kts 237°
2026-05-08 23:17 48.69959 -55.03870 31576 ft 440 kts 237°
2026-05-08 23:17 48.67562 -55.12385 31568 ft 439 kts 236°
2026-05-08 23:18 48.65163 -55.20875 31557 ft 438 kts 236°
2026-05-08 23:18 48.62761 -55.29346 31565 ft 438 kts 236°
2026-05-08 23:19 48.60355 -55.37802 31566 ft 438 kts 236°
2026-05-08 23:19 48.57942 -55.46254 31603 ft 438 kts 236°
2026-05-08 23:20 48.55525 -55.54688 31592 ft 438 kts 236°
2026-05-08 23:20 48.53116 -55.63066 31564 ft 437 kts 236°
2026-05-08 23:21 48.50699 -55.71451 31566 ft 435 kts 236°
2026-05-08 23:21 48.48282 -55.79801 31563 ft 434 kts 235°
2026-05-08 23:22 48.45865 -55.88120 31585 ft 433 kts 235°
2026-05-08 23:22 48.43441 -55.96429 31567 ft 433 kts 235°
2026-05-08 23:23 48.41010 -56.04739 31575 ft 434 kts 235°
2026-05-08 23:23 48.38567 -56.13059 31567 ft 435 kts 235°
2026-05-08 23:24 48.36114 -56.21386 31564 ft 435 kts 235°
2026-05-08 23:24 48.33657 -56.29702 31568 ft 435 kts 235°
2026-05-08 23:25 48.31208 -56.37960 31611 ft 436 kts 235°
2026-05-08 23:25 48.28730 -56.46287 31573 ft 437 kts 235°
2026-05-08 23:26 48.26245 -56.54613 31561 ft 437 kts 235°
2026-05-08 23:26 48.23756 -56.62924 31560 ft 437 kts 235°
2026-05-08 23:27 48.21262 -56.71223 31610 ft 437 kts 234°
2026-05-08 23:27 48.18761 -56.79515 31593 ft 436 kts 234°
2026-05-08 23:28 48.16254 -56.87800 31598 ft 436 kts 234°
2026-05-08 23:28 48.13743 -56.96070 31590 ft 436 kts 234°
2026-05-08 23:29 48.11228 -57.04328 31623 ft 436 kts 234°
2026-05-08 23:29 48.08706 -57.12578 31642 ft 436 kts 234°
2026-05-08 23:30 48.06178 -57.20825 31702 ft 436 kts 234°
2026-05-08 23:30 48.03641 -57.29070 31638 ft 436 kts 234°
2026-05-08 23:31 48.01119 -57.37242 31636 ft 436 kts 234°
2026-05-08 23:31 47.98577 -57.45450 31632 ft 435 kts 234°
2026-05-08 23:32 47.96034 -57.53634 31638 ft 435 kts 234°
2026-05-08 23:32 47.93910 -57.60449 31635 ft 435 kts 234°
2026-05-08 23:33 47.91350 -57.68635 31634 ft 436 kts 234°
2026-05-08 23:33 47.88786 -57.76809 31636 ft 436 kts 234°
2026-05-08 23:34 47.86216 -57.84981 31643 ft 436 kts 234°
2026-05-08 23:34 47.83635 -57.93157 31647 ft 437 kts 234°
2026-05-08 23:35 47.81044 -58.01334 31631 ft 438 kts 234°
2026-05-08 23:35 47.78437 -58.09537 31655 ft 440 kts 236°
2026-05-08 23:36 47.75812 -58.17773 31654 ft 441 kts 236°
2026-05-08 23:36 47.73175 -58.26021 31653 ft 442 kts 236°
2026-05-08 23:37 47.70527 -58.34275 31660 ft 444 kts 236°
2026-05-08 23:37 47.67868 -58.42539 31671 ft 444 kts 236°
2026-05-08 23:38 47.65199 -58.50806 31666 ft 444 kts 236°
2026-05-08 23:38 47.62543 -58.59009 31664 ft 444 kts 236°
2026-05-08 23:39 47.59864 -58.67252 31701 ft 443 kts 236°
2026-05-08 23:39 47.57179 -58.75483 31684 ft 444 kts 237°
2026-05-08 23:40 47.54488 -58.83714 31682 ft 444 kts 237°
2026-05-08 23:40 47.51792 -58.91929 31681 ft 444 kts 237°
2026-05-08 23:41 47.49090 -59.00136 31681 ft 444 kts 236°
2026-05-08 23:41 47.46383 -59.08332 31711 ft 444 kts 237°
2026-05-08 23:42 47.43669 -59.16526 31700 ft 444 kts 237°
2026-05-08 23:42 47.40946 -59.24720 31699 ft 444 kts 237°
2026-05-08 23:43 47.38222 -59.32889 31703 ft 444 kts 237°
2026-05-08 23:43 47.35490 -59.41058 31707 ft 444 kts 237°
2026-05-08 23:44 47.32814 -59.49032 31705 ft 443 kts 236°
2026-05-08 23:44 47.30077 -59.57166 31712 ft 443 kts 236°
2026-05-08 23:45 47.27340 -59.65275 31777 ft 442 kts 236°
2026-05-08 23:45 47.24595 -59.73379 31731 ft 442 kts 236°
2026-05-08 23:46 47.21851 -59.81457 31725 ft 441 kts 236°
2026-05-08 23:46 47.19102 -59.89521 31737 ft 441 kts 236°
2026-05-08 23:47 47.16354 -59.97561 31736 ft 440 kts 236°
2026-05-08 23:47 47.13604 -60.05583 31732 ft 440 kts 236°
2026-05-08 23:48 47.10847 -60.13597 31740 ft 440 kts 236°
2026-05-08 23:48 47.08085 -60.21602 31739 ft 440 kts 236°
2026-05-08 23:49 47.05313 -60.29612 31744 ft 440 kts 236°
2026-05-08 23:49 47.02535 -60.37614 31747 ft 441 kts 236°
2026-05-08 23:50 46.99749 -60.45617 31791 ft 441 kts 236°
2026-05-08 23:50 46.96946 -60.53640 31758 ft 443 kts 236°
2026-05-08 23:51 46.94148 -60.61623 31752 ft 445 kts 236°
2026-05-08 23:51 46.91309 -60.69702 31756 ft 448 kts 236°
2026-05-08 23:52 46.88454 -60.77804 31746 ft 449 kts 236°
2026-05-08 23:52 46.85591 -60.85904 31748 ft 449 kts 236°
2026-05-08 23:53 46.82721 -60.94002 31774 ft 449 kts 237°
2026-05-08 23:53 46.79843 -61.02090 31764 ft 449 kts 237°
2026-05-08 23:54 46.76959 -61.10174 31764 ft 449 kts 237°
2026-05-08 23:55 46.72622 -61.22285 31820 ft 449 kts 238°
2026-05-08 23:55 46.69713 -61.30374 31794 ft 452 kts 238°
2026-05-08 23:56 46.66784 -61.38492 31781 ft 454 kts 238°
2026-05-08 23:56 46.65307 -61.42578 31898 ft 458 kts 238°
2026-05-08 23:56 46.63822 -61.46680 32237 ft 458 kts 238°
2026-05-08 23:56 46.62339 -61.50773 32627 ft 456 kts 238°
2026-05-08 23:57 46.60861 -61.54846 33036 ft 455 kts 238°
2026-05-08 23:57 46.59386 -61.58908 33411 ft 454 kts 238°
2026-05-08 23:57 46.57907 -61.62968 33697 ft 455 kts 238°
2026-05-08 23:58 46.54914 -61.71162 33760 ft 460 kts 239°
2026-05-08 23:58 46.51924 -61.79333 33753 ft 455 kts 239°
2026-05-08 23:59 46.48975 -61.87366 33762 ft 453 kts 239°
2026-05-08 23:59 46.46008 -61.95421 33762 ft 453 kts 239°
2026-05-09 00:00 46.43028 -62.03484 33773 ft 454 kts 239°
2026-05-09 00:00 46.40030 -62.11572 33770 ft 456 kts 239°
2026-05-09 00:01 46.37014 -62.19685 33776 ft 458 kts 239°
2026-05-09 00:01 46.33982 -62.27819 33773 ft 460 kts 239°
2026-05-09 00:02 46.30934 -62.35970 33775 ft 461 kts 239°
2026-05-09 00:02 46.27877 -62.44121 33776 ft 461 kts 240°
2026-05-09 00:03 46.24812 -62.52268 33766 ft 461 kts 240°
2026-05-09 00:03 46.21743 -62.60402 33760 ft 461 kts 240°
2026-05-09 00:04 46.18672 -62.68518 33760 ft 460 kts 240°
2026-05-09 00:04 46.15598 -62.76616 33788 ft 460 kts 240°
2026-05-09 00:05 46.12519 -62.84702 33773 ft 460 kts 240°
2026-05-09 00:05 46.09459 -62.92719 33778 ft 460 kts 240°
2026-05-09 00:06 46.06372 -63.00781 33774 ft 459 kts 240°
2026-05-09 00:06 46.03280 -63.08829 33756 ft 459 kts 240°
2026-05-09 00:07 46.00185 -63.16862 33774 ft 459 kts 240°
2026-05-09 00:07 45.97084 -63.24890 33767 ft 459 kts 240°
2026-05-09 00:08 45.93981 -63.32898 33766 ft 459 kts 240°
2026-05-09 00:08 45.90873 -63.40894 33766 ft 459 kts 240°
2026-05-09 00:09 45.87759 -63.48885 33763 ft 459 kts 240°
2026-05-09 00:09 45.84636 -63.56873 33769 ft 459 kts 240°
2026-05-09 00:10 45.81508 -63.64853 33763 ft 459 kts 240°
2026-05-09 00:10 45.78372 -63.72829 33764 ft 459 kts 240°
2026-05-09 00:11 45.75229 -63.80799 33766 ft 460 kts 240°
2026-05-09 00:11 45.72099 -63.88715 33773 ft 460 kts 240°
2026-05-09 00:12 45.68944 -63.96671 33770 ft 460 kts 240°
2026-05-09 00:12 45.65782 -64.04620 33772 ft 460 kts 240°
2026-05-09 00:13 45.62614 -64.12564 33765 ft 460 kts 240°
2026-05-09 00:13 45.59440 -64.20497 33776 ft 460 kts 240°
2026-05-09 00:14 45.56259 -64.28427 33781 ft 460 kts 240°
2026-05-09 00:14 45.53072 -64.36348 33781 ft 460 kts 240°
2026-05-09 00:15 45.49881 -64.44258 33792 ft 460 kts 240°
2026-05-09 00:15 45.46683 -64.52161 33799 ft 460 kts 240°
2026-05-09 00:16 45.43483 -64.60049 33798 ft 460 kts 240°
2026-05-09 00:16 45.40279 -64.67924 33807 ft 460 kts 240°
2026-05-09 00:17 45.37069 -64.75790 33815 ft 460 kts 240°
2026-05-09 00:17 45.33853 -64.83649 33834 ft 459 kts 240°
2026-05-09 00:18 45.30631 -64.91501 33831 ft 460 kts 241°
2026-05-09 00:18 45.27427 -64.99286 33827 ft 459 kts 241°
2026-05-09 00:19 45.24200 -65.07108 33836 ft 459 kts 241°
2026-05-09 00:19 45.20966 -65.14923 33830 ft 459 kts 241°
2026-05-09 00:20 45.17723 -65.22738 33840 ft 459 kts 241°
2026-05-09 00:20 45.14481 -65.30529 33841 ft 459 kts 241°
2026-05-09 00:21 45.11233 -65.38313 33849 ft 459 kts 240°
2026-05-09 00:21 45.08528 -65.44779 33825 ft 459 kts 241°
2026-05-09 00:22 45.05273 -65.52540 33842 ft 459 kts 240°
2026-05-09 00:22 45.02213 -65.59817 33848 ft 459 kts 241°
2026-05-09 00:23 44.98945 -65.67570 33852 ft 459 kts 241°
2026-05-09 00:23 44.95670 -65.75315 33857 ft 459 kts 241°
2026-05-09 00:24 44.92391 -65.83050 33863 ft 459 kts 241°
2026-05-09 00:24 44.89108 -65.90772 33856 ft 459 kts 241°
2026-05-09 00:25 44.85823 -65.98479 33859 ft 459 kts 241°
2026-05-09 00:25 44.82532 -66.06178 33859 ft 458 kts 241°
2026-05-09 00:26 44.79239 -66.13862 33844 ft 458 kts 241°
2026-05-09 00:26 44.75949 -66.21518 33849 ft 457 kts 241°
2026-05-09 00:27 44.72654 -66.29165 33853 ft 457 kts 241°
2026-05-09 00:27 44.69378 -66.36746 33851 ft 456 kts 241°
2026-05-09 00:28 44.66076 -66.44368 33848 ft 456 kts 241°
2026-05-09 00:28 44.62776 -66.51966 33858 ft 456 kts 241°
2026-05-09 00:29 44.59468 -66.59561 33864 ft 456 kts 241°
2026-05-09 00:29 44.56155 -66.67147 33862 ft 455 kts 241°
2026-05-09 00:30 44.52840 -66.74716 33851 ft 455 kts 241°
2026-05-09 00:30 44.49524 -66.82267 33867 ft 454 kts 241°
2026-05-09 00:31 44.46210 -66.89795 33876 ft 454 kts 241°
2026-05-09 00:31 44.42910 -66.97329 33882 ft 453 kts 243°
2026-05-09 00:32 44.40282 -67.05291 33882 ft 450 kts 252°
2026-05-09 00:32 44.38220 -67.13569 33889 ft 451 kts 252°
2026-05-09 00:33 44.36128 -67.21827 33885 ft 451 kts 252°
2026-05-09 00:33 44.34014 -67.30077 33897 ft 451 kts 252°
2026-05-09 00:34 44.31885 -67.38329 33899 ft 452 kts 252°
2026-05-09 00:34 44.29748 -67.46580 33896 ft 452 kts 252°
2026-05-09 00:35 44.27617 -67.54781 33893 ft 451 kts 252°
2026-05-09 00:35 44.25473 -67.63004 33896 ft 451 kts 252°
2026-05-09 00:36 44.23325 -67.71216 33895 ft 450 kts 252°
2026-05-09 00:36 44.21173 -67.79415 33899 ft 450 kts 252°
2026-05-09 00:37 44.19016 -67.87607 33901 ft 450 kts 252°
2026-05-09 00:37 44.16858 -67.95771 33901 ft 449 kts 252°
2026-05-09 00:38 44.14697 -68.03919 33899 ft 448 kts 252°
2026-05-09 00:38 44.12536 -68.12040 33901 ft 447 kts 252°
2026-05-09 00:39 44.10369 -68.20156 33903 ft 447 kts 252°
2026-05-09 00:39 44.08201 -68.28248 33905 ft 447 kts 252°
2026-05-09 00:40 44.06027 -68.36338 33901 ft 446 kts 252°
2026-05-09 00:40 44.03852 -68.44400 33922 ft 445 kts 252°
2026-05-09 00:41 44.00584 -68.56467 33915 ft 444 kts 252°
2026-05-09 00:41 43.98402 -68.64491 33914 ft 444 kts 252°
2026-05-09 00:42 43.95607 -68.72134 33923 ft 449 kts 239°
2026-05-09 00:42 43.91558 -68.78768 33910 ft 455 kts 228°
2026-05-09 00:43 43.86882 -68.84673 33915 ft 455 kts 227°
2026-05-09 00:43 43.82172 -68.90534 33920 ft 455 kts 227°
2026-05-09 00:44 43.77481 -68.96403 33912 ft 454 kts 227°
2026-05-09 00:44 43.72805 -69.02275 33910 ft 454 kts 227°
2026-05-09 00:45 43.68137 -69.08138 33926 ft 453 kts 227°
2026-05-09 00:45 43.63474 -69.13983 33899 ft 453 kts 227°
2026-05-09 00:46 43.58841 -69.19774 33915 ft 452 kts 228°
2026-05-09 00:46 43.54184 -69.25584 33930 ft 451 kts 228°
2026-05-09 00:47 43.49522 -69.31386 33932 ft 451 kts 228°
2026-05-09 00:47 43.44860 -69.37176 33926 ft 450 kts 228°
2026-05-09 00:48 43.40207 -69.42942 33927 ft 450 kts 228°
2026-05-09 00:48 43.35558 -69.48692 33933 ft 449 kts 228°
2026-05-09 00:49 43.30905 -69.54433 33920 ft 449 kts 228°
2026-05-09 00:49 43.26257 -69.60157 33927 ft 449 kts 228°
2026-05-09 00:50 43.21610 -69.65866 33937 ft 448 kts 228°
2026-05-09 00:50 43.16964 -69.71563 33936 ft 448 kts 228°
2026-05-09 00:51 43.12314 -69.77252 33940 ft 447 kts 228°
2026-05-09 00:51 43.07673 -69.82917 33944 ft 447 kts 228°
2026-05-09 00:52 43.03035 -69.88568 33944 ft 447 kts 228°
2026-05-09 00:52 42.98393 -69.94211 33946 ft 447 kts 228°
2026-05-09 00:53 42.93782 -69.99806 33949 ft 447 kts 228°
2026-05-09 00:53 42.89130 -70.05437 33951 ft 447 kts 228°
2026-05-09 00:54 42.84472 -70.11065 33909 ft 447 kts 228°
2026-05-09 00:54 42.79824 -70.16666 33932 ft 446 kts 228°
2026-05-09 00:55 42.75181 -70.22252 33941 ft 445 kts 228°
2026-05-09 00:55 42.70534 -70.27831 33936 ft 445 kts 228°
2026-05-09 00:56 42.65898 -70.33385 33931 ft 444 kts 228°
2026-05-09 00:56 42.61266 -70.38923 33930 ft 443 kts 228°
2026-05-09 00:57 42.56643 -70.44438 33934 ft 442 kts 228°
2026-05-09 00:57 42.52019 -70.49944 33907 ft 442 kts 228°
2026-05-09 00:58 42.47404 -70.55427 33932 ft 440 kts 228°
2026-05-09 00:58 42.42801 -70.60885 33917 ft 439 kts 228°
2026-05-09 00:59 42.38212 -70.66315 33927 ft 438 kts 228°
2026-05-09 00:59 42.35171 -70.69908 33912 ft 437 kts 229°
2026-05-09 01:00 42.29100 -70.77063 33922 ft 434 kts 229°
2026-05-09 01:00 42.25135 -70.81730 33928 ft 433 kts 229°
2026-05-09 01:01 42.20597 -70.87059 33921 ft 432 kts 229°
2026-05-09 01:01 42.16064 -70.92372 33944 ft 431 kts 229°
2026-05-09 01:02 42.11541 -70.97661 33957 ft 430 kts 229°
2026-05-09 01:02 42.07019 -71.02941 33964 ft 430 kts 229°
2026-05-09 01:03 42.02504 -71.08201 33955 ft 429 kts 229°
2026-05-09 01:03 41.98018 -71.13417 33969 ft 429 kts 229°
2026-05-09 01:04 41.93502 -71.18658 33970 ft 429 kts 229°
2026-05-09 01:04 41.88981 -71.23894 33969 ft 429 kts 229°
2026-05-09 01:05 41.84461 -71.29118 33968 ft 428 kts 229°
2026-05-09 01:06 41.77692 -71.36921 33971 ft 428 kts 229°
2026-05-09 01:06 41.73178 -71.42116 33971 ft 428 kts 229°
2026-05-09 01:07 41.68632 -71.47264 33974 ft 427 kts 229°
2026-05-09 01:07 41.64065 -71.52349 33957 ft 427 kts 229°
2026-05-09 01:07 41.61779 -71.54891 33737 ft 430 kts 229°
2026-05-09 01:08 41.59451 -71.57491 32840 ft 438 kts 229°
2026-05-09 01:08 41.57112 -71.60093 32004 ft 437 kts 229°
2026-05-09 01:08 41.54771 -71.62692 31139 ft 437 kts 228°
2026-05-09 01:08 41.52438 -71.65279 30397 ft 435 kts 228°
2026-05-09 01:09 41.50122 -71.67843 29738 ft 430 kts 228°
2026-05-09 01:09 41.47842 -71.70366 29061 ft 426 kts 228°
2026-05-09 01:09 41.45570 -71.72880 28440 ft 422 kts 228°
2026-05-09 01:09 41.43327 -71.75363 27840 ft 417 kts 228°
2026-05-09 01:10 41.41133 -71.77790 27254 ft 413 kts 228°
2026-05-09 01:10 41.38942 -71.80213 26672 ft 410 kts 228°
2026-05-09 01:10 41.36754 -71.82629 26098 ft 407 kts 228°
2026-05-09 01:10 41.34604 -71.85001 25544 ft 404 kts 228°
2026-05-09 01:11 41.32443 -71.87384 24990 ft 401 kts 228°
2026-05-09 01:11 41.30302 -71.89742 24446 ft 399 kts 228°
2026-05-09 01:11 41.28176 -71.92081 23935 ft 397 kts 228°
2026-05-09 01:11 41.26096 -71.94367 23515 ft 397 kts 228°
2026-05-09 01:12 41.23987 -71.96691 23038 ft 404 kts 227°
2026-05-09 01:12 41.21808 -71.99087 22591 ft 407 kts 227°
2026-05-09 01:12 41.19658 -72.01439 22156 ft 406 kts 227°
2026-05-09 01:12 41.17481 -72.03817 21716 ft 403 kts 227°
2026-05-09 01:13 41.15326 -72.06173 21318 ft 401 kts 227°
2026-05-09 01:13 41.13180 -72.08520 20895 ft 399 kts 227°
2026-05-09 01:13 41.11099 -72.10898 20470 ft 388 kts 233°
2026-05-09 01:13 41.09557 -72.13725 20072 ft 373 kts 249°
2026-05-09 01:14 41.08644 -72.16873 19699 ft 362 kts 257°
2026-05-09 01:14 41.07886 -72.20056 19319 ft 362 kts 257°
2026-05-09 01:14 41.07124 -72.23232 18945 ft 362 kts 257°
2026-05-09 01:14 41.06355 -72.26412 18572 ft 362 kts 257°
2026-05-09 01:15 41.05579 -72.29592 18172 ft 363 kts 257°
2026-05-09 01:15 41.04797 -72.32772 17733 ft 363 kts 257°
2026-05-09 01:15 41.04012 -72.35942 17333 ft 361 kts 256°
2026-05-09 01:15 41.03229 -72.39090 16936 ft 359 kts 256°
2026-05-09 01:16 41.02449 -72.42215 16564 ft 356 kts 257°
2026-05-09 01:16 41.01673 -72.45319 16191 ft 353 kts 257°
2026-05-09 01:16 41.00904 -72.48392 15819 ft 351 kts 257°
2026-05-09 01:17 40.99379 -72.54472 15102 ft 345 kts 257°
2026-05-09 01:17 40.98627 -72.57464 14742 ft 341 kts 257°
2026-05-09 01:17 40.97882 -72.60422 14377 ft 337 kts 257°
2026-05-09 01:17 40.97145 -72.63348 14028 ft 333 kts 257°
2026-05-09 01:18 40.96420 -72.66222 13653 ft 326 kts 257°
2026-05-09 01:18 40.95714 -72.69012 13267 ft 310 kts 257°
2026-05-09 01:18 40.95048 -72.71640 12955 ft 293 kts 257°
2026-05-09 01:18 40.94420 -72.74117 12649 ft 275 kts 257°
2026-05-09 01:19 40.93830 -72.76445 12369 ft 260 kts 257°
2026-05-09 01:19 40.93240 -72.78645 12118 ft 251 kts 250°
2026-05-09 01:19 40.92204 -72.80567 11974 ft 266 kts 233°
2026-05-09 01:19 40.90733 -72.82131 11821 ft 274 kts 225°
2026-05-09 01:20 40.89187 -72.83603 11622 ft 273 kts 225°
2026-05-09 01:20 40.87644 -72.85063 11467 ft 272 kts 225°
2026-05-09 01:20 40.86112 -72.86514 11316 ft 270 kts 225°
2026-05-09 01:20 40.84590 -72.87959 11154 ft 269 kts 225°
2026-05-09 01:21 40.83075 -72.89401 11006 ft 268 kts 225°
2026-05-09 01:21 40.81571 -72.90836 10855 ft 267 kts 225°
2026-05-09 01:21 40.80068 -72.92271 10708 ft 266 kts 225°
2026-05-09 01:21 40.78590 -72.93682 10558 ft 265 kts 225°
2026-05-09 01:22 40.77077 -72.95126 10397 ft 264 kts 225°
2026-05-09 01:22 40.75609 -72.96529 10251 ft 264 kts 224°
2026-05-09 01:22 40.74115 -72.97955 10085 ft 259 kts 224°
2026-05-09 01:22 40.72678 -72.99324 9942 ft 252 kts 224°
2026-05-09 01:23 40.71273 -73.00663 9778 ft 248 kts 224°
2026-05-09 01:23 40.69891 -73.01991 9644 ft 242 kts 226°
2026-05-09 01:23 40.68703 -73.03510 9521 ft 236 kts 235°
2026-05-09 01:23 40.67656 -73.05128 9396 ft 235 kts 237°
2026-05-09 01:24 40.66613 -73.06790 9277 ft 235 kts 237°
2026-05-09 01:24 40.65577 -73.08459 9194 ft 235 kts 237°
2026-05-09 01:24 40.64544 -73.10136 9061 ft 236 kts 237°
2026-05-09 01:24 40.63512 -73.11819 8961 ft 236 kts 237°
2026-05-09 01:25 40.62482 -73.13504 8765 ft 236 kts 237°
2026-05-09 01:25 40.61441 -73.15221 8294 ft 244 kts 237°
2026-05-09 01:25 40.60391 -73.16966 8010 ft 241 kts 237°
2026-05-09 01:25 40.59360 -73.18685 7623 ft 239 kts 237°
2026-05-09 01:26 40.58342 -73.20393 7297 ft 235 kts 237°
2026-05-09 01:26 40.57345 -73.22070 6964 ft 231 kts 237°
2026-05-09 01:26 40.56364 -73.23731 6640 ft 229 kts 237°
2026-05-09 01:26 40.55388 -73.25391 6323 ft 230 kts 237°
2026-05-09 01:27 40.54414 -73.27054 6007 ft 229 kts 237°
2026-05-09 01:27 40.53442 -73.28723 5682 ft 231 kts 237°
2026-05-09 01:27 40.52467 -73.30414 5373 ft 233 kts 237°
2026-05-09 01:27 40.51507 -73.32101 5069 ft 234 kts 237°
2026-05-09 01:28 40.50778 -73.33959 4731 ft 229 kts 261°
2026-05-09 01:28 40.50789 -73.36017 4430 ft 226 kts 277°
2026-05-09 01:28 40.50992 -73.38078 4140 ft 228 kts 277°
2026-05-09 01:28 40.51194 -73.40149 3827 ft 228 kts 277°
2026-05-09 01:29 40.51395 -73.42199 3512 ft 224 kts 277°
2026-05-09 01:29 40.51503 -73.44208 3208 ft 219 kts 275°
2026-05-09 01:29 40.51656 -73.46203 3091 ft 221 kts 277°
2026-05-09 01:29 40.51941 -73.48165 2991 ft 217 kts 292°
2026-05-09 01:30 40.52616 -73.49876 3006 ft 207 kts 298°
2026-05-09 01:30 40.53319 -73.51513 2987 ft 204 kts 299°
2026-05-09 01:30 40.54033 -73.53122 3046 ft 203 kts 300°
2026-05-09 01:30 40.54762 -73.54733 3028 ft 208 kts 300°
2026-05-09 01:31 40.55509 -73.56378 3002 ft 210 kts 300°
2026-05-09 01:31 40.56244 -73.57994 2969 ft 200 kts 300°
2026-05-09 01:31 40.56933 -73.59511 2918 ft 190 kts 300°
2026-05-09 01:31 40.57607 -73.60997 2642 ft 186 kts 300°
2026-05-09 01:32 40.58265 -73.62447 2398 ft 183 kts 300°
2026-05-09 01:32 40.58889 -73.63826 2185 ft 168 kts 301°
2026-05-09 01:32 40.59486 -73.65142 1945 ft 167 kts 301°
2026-05-09 01:32 40.60075 -73.66439 1707 ft 160 kts 300°
2026-05-09 01:33 40.60619 -73.67639 1506 ft 151 kts 301°
2026-05-09 01:33 40.61153 -73.68817 1366 ft 150 kts 301°
2026-05-09 01:33 40.61697 -73.70010 1113 ft 153 kts 301°
2026-05-09 01:33 40.62234 -73.71207 915 ft 151 kts 300°
2026-05-09 01:34 40.62766 -73.72411 692 ft 154 kts 300°
2026-05-09 01:34 40.63329 -73.73639 505 ft 159 kts 300°
2026-05-09 01:34 40.63904 -73.74891 294 ft 158 kts 300°
2026-05-09 01:34 40.64462 -73.76131 94 ft 157 kts 300°
2026-05-09 01:35 40.65004 -73.77326 27 ft 139 kts 302°
2026-05-09 01:35 40.65385 -73.78159 27 ft 73 kts 301°
2026-05-09 01:35 40.65573 -73.78571 28 ft 40 kts 301°
2026-05-09 01:35 40.65602 -73.78707 29 ft 10 kts 241°
2026-05-09 01:36 40.65539 -73.78741 25 ft 10 kts 168°
2026-05-09 01:36 40.65492 -73.78671 28 ft 10 kts 124°
2026-05-09 01:36 40.65452 -73.78591 26 ft 10 kts 125°
2026-05-09 01:36 40.65397 -73.78532 29 ft 10 kts 153°
2026-05-09 01:37 40.65329 -73.78544 28 ft 11 kts 230°
2026-05-09 01:37 40.65290 -73.78631 31 ft 11 kts 241°
2026-05-09 01:37 40.65251 -73.78725 28 ft 14 kts 241°
2026-05-09 01:37 40.65219 -73.78851 28 ft 14 kts 262°
2026-05-09 01:38 40.65232 -73.78981 28 ft 14 kts 288°
2026-05-09 01:38 40.65263 -73.79107 28 ft 14 kts 288°
2026-05-09 01:38 40.65288 -73.79234 28 ft 14 kts 276°
2026-05-09 01:38 40.65272 -73.79362 28 ft 14 kts 245°
2026-05-09 01:39 40.65222 -73.79477 28 ft 14 kts 240°
2026-05-09 01:39 40.65174 -73.79593 28 ft 14 kts 242°
2026-05-09 01:39 40.65192 -73.79702 32 ft 15 kts 313°
2026-05-09 01:39 40.65183 -73.79828 31 ft 15 kts 241°
2026-05-09 01:40 40.65135 -73.79948 28 ft 15 kts 248°
2026-05-09 01:40 40.65128 -73.80083 26 ft 15 kts 271°
2026-05-09 01:40 40.65132 -73.80188 30 ft 4 kts 276°
2026-05-09 01:40 40.65132 -73.80209 26 ft 0 kts 268°
2026-05-09 01:41 40.65110 -73.80243 31 ft 7 kts 205°
2026-05-09 01:41 40.65068 -73.80265 30 ft 3 kts 201°
2026-05-09 01:41 40.65054 -73.80272 30 ft 0 kts 201°